Preview of NWS' New Version of Forecast
This preview is not operational and should not be used for support decisions.
Latest weather observations around

State College - University Park Airport (KUNV)

Using English Units (Switch to International System of Units)
Date/ Time (EDT) Wind (mph) Vis. (mi) Weather Sky Cond. Temp (°F) Rel. Humidity Wind Chill (°F) Heat Index (°F) Pressure Precip. (in)
Air Dwpt 6 hour Altimeter (inHg) Sea level (inHg) 1 hr 3 hr 6 hr
Max Min
May 24 16:53 NW 9 10 Clear CLR 73 50     44%   72 30.1        
May 24 15:53 NNW 11 10 Clear CLR 73 48     41%   72 30.07        
May 24 14:53 WNW 16 10 Mostly Clear FEW060 75 50     41%   74          
May 24 13:53 NW 15 10 Mostly Clear FEW060 73        %     30.08        
May 24 12:53 NW 14 10 Mostly Clear FEW060 72 48     43%   71 30.08        
May 24 11:53 NW 15 10 Mostly Clear FEW040 70 50     49%     30.08        
May 24 10:53 NW 14 10 Mostly Clear FEW040 68 48     49%     30.08        
May 24 09:53 NW 14 10 Mostly Clear FEW040 64 48     56%     30.07        
May 24 08:53 WNW 10 10 Clear CLR 61 48     63%     30.07        
May 24 07:53 NW 7 10 Clear CLR 59 48     67%     30.07        
May 24 06:53 NNW 6 10 Clear CLR 57 46     67%     30.04        
May 24 05:53 NW 7 10 Clear CLR 59 46     63%     30.02        
May 24 05:35 NW 5 10 Clear CLR 59 46     63%     30.02        
May 24 05:15 NNW 8 10 Clear CLR 60 46     62%     30.01        
May 24 04:56 NNW 11 10 Clear CLR 60 47     64%     30.02        
May 24 04:36 NW 6 10 Clear CLR 60 48     63%     30.01        
May 24 04:15 NW 9 10 Clear CLR 61 48     64%     30.01        
May 24 03:55 NW 8 10 Clear CLR 61 49     64%     30        
May 24 03:36 NW 7 10 Clear CLR 62 49     63%     29.98        
May 24 03:16 WNW 7 10 Clear CLR 63 49     62%     29.98        
May 24 02:55 W 7 10 Clear CLR 64 50     60%     29.98        
May 24 02:35 WNW 6 10 Clear CLR 64 51     61%     29.98        
May 24 02:15 W 9 10 Clear CLR 65 51     62%     29.97        
May 24 01:56 WSW 7 10 Clear CLR 65 53     64%     29.96       0
May 24 01:36 WSW 7 10 Partly Cloudy SCT060 66 54     66%     29.96        
May 24 01:15 WNW 5 10 Partly Cloudy SCT060 67 56     70%     29.97        
May 24 00:55 W 8 10 Clear CLR 68 58     70%     29.96        
May 24 00:36 W 8 10 Clear CLR 68 59     73%     29.95        
May 24 00:16 W 10 10 Partly Cloudy SCT060 68 61     77%     29.95        
May 23 23:55 W 9 10 Partly Cloudy SCT060 69 61     75%     29.95        
May 23 23:35 W 9 10 Partly Cloudy SCT070 69 62     78%     29.95        
May 23 23:16 W 9 10 Partly Cloudy SCT070 70 63     78%     29.95        
May 23 22:56 WSW 9 10 Partly Cloudy SCT060 SCT070 69 63     83%     29.95     0  
May 23 22:36 W 11 10 Partly Cloudy SCT045 SCT100 SCT120 71 63     77%   71 29.94        
May 23 22:15 W 8 10 Mostly Cloudy SCT047 BKN065 BKN095 70 64     81%   71 29.93        
May 23 21:53 WSW 7 10 Mostly Cloudy SCT048 BKN060 BKN085 70 64     83%     29.93        
May 23 20:53 WNW 8 10 Thunderstorms and Rain SCT027 BKN065 BKN085 73 64     73%   74 29.92        
May 23 20:20 WSW 10 10 Thunderstorms SCT055 SCT065 73 63     69%   74 29.91        
May 23 19:53 WSW 10 10 Partly Cloudy SCT060 73 63     69%   74 29.9        
May 23 18:53 W 15 10 Partly Cloudy SCT050 77 63     61%   77 29.91        
May 23 17:53 W 20 10 Partly Cloudy and Windy SCT050 SCT060 79 61     54%   79 29.93        
May 23 16:53 WSW 9 10 Mostly Cloudy BKN060 77 66     69%   78 29.95        
May 23 15:53 SSW 9 10 Clear CLR 75 66     74%   76 29.96        
May 23 14:53 SSW 8 10 Mostly Cloudy BKN110 72 68     88%   73 30        
May 23 13:53 SSW 6 10 Cloudy SCT080 OVC090 70 66     88%     30.05        
May 23 12:53 SW 5 10 Cloudy SCT016 SCT035 OVC090 68 66     94%     30.07        
May 23 12:39 SW 9 7 Thunderstorms and Drizzle SCT016 BKN035 BKN046 68 64     88%     30.08        
May 23 12:25 SW 6 2 Thunderstorms and Light Rain SCT037 OVC046 72 63     73%   72 30.06        
May 23 12:11 SW 9 6 Thunderstorms and Light Rain SCT046 SCT050 73 63     69%   74 30.06        
May 23 11:53 SW 6 10 Partly Cloudy SCT046 SCT050 72 63     73%   72 30.06        
May 23 10:53 SW 6 10 Partly Cloudy SCT048 SCT060 70 59     69%     30.08        
May 23 09:53 SW 5 10 Clear CLR 68 59     73%     30.1        
May 23 08:53 SW 5 10 Partly Cloudy SCT048 64 57     77%     30.12        
May 23 07:53 SW 5 10 Partly Cloudy SCT065 61 55     82%     30.13        
May 23 06:53 Calm 10 Mostly Cloudy BKN070 55 55     100%     30.12        
May 23 05:53 W 3 10 Partly Cloudy SCT085 57 55     94%     30.11        
May 23 05:36 WNW 3 10 Mostly Cloudy SCT060 SCT075 BKN085 57 54     91%     30.12        
May 23 05:16 NW 3 10 Mostly Cloudy SCT060 BKN095 BKN120 56 54     93%     30.11        
May 23 04:55 Calm 10 Mostly Cloudy SCT060 SCT080 BKN090 58 55     92%     30.12        
May 23 04:35 Calm 10 Cloudy SCT050 BKN080 OVC110 57 56     94%     30.13        
May 23 04:16 Calm 10 Cloudy SCT050 BKN085 OVC090 58 53     85%     30.14        
May 23 03:56 Calm 10 Cloudy SCT060 SCT065 OVC075 58 55     91%     30.14        
May 23 03:35 Calm 10 Rain BKN050 BKN065 OVC120 60 53     78%     30.15        
May 23 03:15 Calm 10 Mostly Cloudy SCT055 SCT070 BKN080 60 51     73%     30.14        
May 23 02:56 Calm 10 Cloudy SCT055 SCT065 OVC080 61 50     66%     30.14        
May 23 02:36 Calm 10 Cloudy SCT055 OVC070 61 50     66%     30.15        
May 23 02:16 NNW 5 10 Cloudy SCT055 BKN070 OVC100 62 50     63%     30.16        
May 23 01:55 SSW 6 10 Thunderstorms BKN070 OVC090 62 49     63%     30.14        
May 23 01:35 SW 8 10 Cloudy OVC080 62 49     63%     30.14        
May 23 01:16 SSW 7 10 Cloudy OVC080 62 49     62%     30.15        
May 23 00:56 SSW 6 10 Cloudy SCT070 OVC080 62 49     61%     30.16        
May 23 00:35 SW 6 10 Cloudy OVC090 62 48     60%     30.17        
May 23 00:15 SSW 7 10 Cloudy OVC090 62 48     61%     30.17        
May 22 23:55 SSW 6 10 Cloudy OVC090 62 48     60%     30.17        
May 22 23:36 SSW 6 10 Clear   62 47     59%     30.18        
May 22 23:16 SW 6 10 Clear   61 48     62%     30.19        
May 22 22:55 SW 6 10 Clear   62 47     58%     30.2        
May 22 22:35 SSW 7 10 Cloudy OVC100 62 47     57%     30.2        
May 22 22:16 SSW 6 10 Partly Cloudy SCT100 62 46     56%     30.19        
May 22 21:53 S 6 10 Clear CLR 61 45     55%     30.19        
May 22 20:53 S 5 10 Partly Cloudy SCT090 SCT110 63 45     52%     30.21        
May 22 18:53 SSW 8 10 Mostly Cloudy BKN070 BKN080 BKN100 64 45     49%     30.19        
May 22 17:53 SSW 9 10 Clear CLR 64 46     52%     30.19        
May 22 16:53 S 6 10 Clear CLR 66 45     46%     30.21        
May 22 15:53 S 7 10 Clear CLR 66 43     43%     30.22        
May 22 14:53 SSW 7 10 Clear CLR 66 41     40%     30.24        
May 22 13:53 SSW 8 10 Clear CLR 66 43     43%     30.24        
May 22 12:53 SSW 8 10 Mostly Cloudy BKN075 64 41     42%     30.26        
May 22 11:53 S 8 10 Mostly Cloudy SCT080 BKN090 63 36     36%     30.27        
May 22 10:53 Calm 10 Clear CLR 61 45     55%     30.28        
May 22 09:53 Calm 10 Clear CLR 57 45     63%     30.29        
May 22 08:53 Calm 10 Clear CLR 52 45     76%     30.29        
May 22 07:53 Calm 10 Clear CLR 46 43     87%     30.28        
May 22 06:53 Calm 10 Clear CLR 45 43     93%     30.25        
May 22 05:53 Calm 10 Clear CLR 43 39     87%     30.23        
May 22 05:35 Calm 10 Clear CLR 40 39     95%     30.23        
May 22 05:16 Calm 10 Clear CLR 44 39     83%     30.22        
May 22 04:56 Calm 10 Clear CLR 43 39     85%     30.21        
May 22 04:35 Calm 10 Clear CLR 44 39     84%     30.2        
May 22 04:15 Calm 10 Clear CLR 45 39     81%     30.2        
May 22 03:56 Calm 10 Clear CLR 43 38     85%     30.21        
May 22 03:36 Calm 10 Clear CLR 46 39     76%     30.2        
May 22 03:16 Calm 10 Clear CLR 45 39     79%     30.2        
May 22 02:55 Calm 10 Clear CLR 46 38     76%     30.2        
May 22 02:35 Calm 10 Clear CLR 49 38     67%     30.2        
May 22 02:16 Calm 10 Clear CLR 49 38     66%     30.2        
May 22 01:56 Calm 10 Clear CLR 49 38     66%     30.2        
May 22 01:35 Calm 10 Clear CLR 49 39     70%     30.2        
May 22 01:15 Calm 10 Clear CLR 50 39     66%     30.19        
May 22 00:55 N 5 10 Clear CLR 50 38     64%     30.18        
May 22 00:36 N 3 10 Clear CLR 52 38     59%     30.19        
May 22 00:16 Calm 10 Clear CLR 51 39     63%     30.18        
May 21 23:55 Calm 10 Clear CLR 50 40     69%     30.18        
May 21 23:35 ENE 5 10 Clear CLR 53 38     56%     30.18        
May 21 23:16 N 6 10 Clear CLR 55 37     51%     30.17        
May 21 22:56 NE 6 10 Clear CLR 55 38     52%     30.16        
May 21 22:35 N 3 10 Clear CLR 57 36     46%     30.15        
May 21 22:15 N 3 10 Clear CLR 57 36     45%     30.15        
May 21 21:53 NNE 5 10 Clear CLR 57 37     47%     30.14        
May 21 20:53 Calm 10 Clear CLR 61 36     39%     30.12        
May 21 19:53 Calm 10 Clear CLR 64 34     32%     30.11        
May 21 18:53 NNE 7 10 Clear CLR 66 32     28%     30.08        
May 21 17:53 NNW 7 10 Clear CLR 68 36     30%     30.07        
May 21 16:53 N 7 10 Clear CLR 68 36     30%     30.07        
May 15 04:55 W 6 10 Clear   61 59     92%     29.92        
May 15 04:35 W 7 10 Cloudy SCT047 BKN070 OVC110 60 59     96%              
May 15 02:15 WSW 3 10 Mostly Cloudy BKN095 62 59     91%     29.93        
May 15 01:35 WSW 5 10 Partly Cloudy SCT095 61 59     93%     29.96        
May 14 20:53 WSW 7 10 Clear CLR 66 61     83%     29.91        
May 13 23:15 N 3 10 Cloudy OVC012 54 54     97%     30.04        
May 13 04:15 N 8 4 Rain OVC003 53 53     100%     30.07        
May 13 01:35 NE 7 10 Cloudy SCT004 OVC012 56 55     96%     30.09        
May 12 01:35 ENE 3 10 Light Rain SCT026 SCT043 BKN095 49 46     92% 48   30.1   0    
May 11 23:55 NE 5 10 Cloudy SCT055 BKN100 OVC120 55 40     57%     30.09        
May 11 23:35 ENE 8 10 Cloudy BKN060 BKN075 OVC120 55 41     59%     30.08        
May 11 22:55 NNE 7 10 Mostly Cloudy SCT060 BKN090 BKN110 58 35     41%     30.1        
Jun 12 05:15 Calm 10 Clear CLR 63 59     85%     30.12        
Jun 12 01:35 WSW 6 10 Clear CLR 67 59     76%     30.09        
Notice The following observation data may not be complete
Jun 11 22:35   10 Clear            %              
Jun 11 18:53 W 13 10 Clear CLR 82 59     45%   82 30.08        
Jun 11 12:53 WSW 17 10 Clear CLR 84 57     40%   83 30.11        
Jun 11 04:15 Calm 10 Partly Cloudy SCT060 SCT070 SCT090 63 58     85%     30.09        
Jun 11 03:35 Calm 10 Clear   64 58     80%     30.08        
Jun 10 23:15 SSW 7 10 Clear CLR 69 59     69%     30.06        
Jun 10 11:53 WSW 13 10 Mostly Cloudy BKN090 BKN110 77 59     54%   77 30.03        
Jun 10 05:53 Calm 10 Mostly Cloudy BKN065 BKN100 59 55     88%     29.99        
Jun 09 14:53   10 Partly Cloudy SCT070 SCT085 75 48     38%   74 29.86        
Jun 09 04:15 SSW 3 10 Clear CLR 54 50     87%     29.8        
Jun 09 00:55 SSW 3 10 Mostly Cloudy BKN075 BKN095 58 51     77%     29.83        
Jun 08 04:15 Calm 10 Mostly Cloudy SCT060 BKN070 51 50     98%     30.04        
Jun 08 00:35 Calm 10 Clear CLR 52 51     95%     30.06        
Notice The following observation data may not be complete
Jun 07 23:35   10 Partly Cloudy SCT070          %              
Notice The following observation data may not be complete
Jun 07 22:35   10 Cloudy OVC070          %              
Jun 06 05:15 Calm 10 Cloudy OVC016 57 54     88%     29.73        
Notice The following observation data may not be complete
Jun 06 00:35   10 Cloudy OVC045          %              
Jun 05 23:35 Calm 10 Mostly Cloudy BKN120 61 58     92%     29.73        
Jun 05 22:55 N 9 10 Light Rain SCT019 BKN050 OVC080 62 59     91%     29.72        
Notice The following observation data may not be complete
Jun 05 22:35   7 Cloudy SCT025 SCT036 OVC060          %         0